This is the latest recevied weather packets stored in our database for station/object DG1GMY-10. If no packets are shown the sender has not sent any weather packets the latest 10 day(s).
| Time | Temp. | Humidity | Pressure | Rain* | Wind** | Luminosity | Snow |
|---|---|---|---|---|---|---|---|
| 1788064596 | 19.44° C | 89% | 1017.3 hPa | - | - | - | - |
| 1788060996 | 18.89° C | 88% | 1017.3 hPa | - | - | - | - |
| 1788057396 | 19.44° C | 89% | 1017.1 hPa | - | - | - | - |
| 1788053796 | 20° C | 89% | 1017.2 hPa | - | - | - | - |
| 1788050196 | 20° C | 91% | 1017.3 hPa | - | - | - | - |
| 1788046596 | 21.11° C | 66% | 1017.2 hPa | - | - | - | - |
| 1788042996 | 22.22° C | 56% | 1016.6 hPa | - | - | - | - |
| 1788039396 | 22.22° C | 55% | 1016.5 hPa | - | - | - | - |
| 1788035796 | 22.22° C | 50% | 1016.2 hPa | - | - | - | - |
| 1788032195 | 22.22° C | 50% | 1016.2 hPa | - | - | - | - |
| 1788028595 | 22.78° C | 49% | 1016.1 hPa | - | - | - | - |
| 1788024995 | 26.67° C | 39% | 1016.1 hPa | - | - | - | - |
| 1788021395 | 28.33° C | 37% | 1016 hPa | - | - | - | - |
| 1788017795 | 35° C | 27% | 1016 hPa | - | - | - | - |
| 1788014195 | 30° C | 34% | 1016.7 hPa | - | - | - | - |
| 1788010595 | 26.67° C | 42% | 1017 hPa | - | - | - | - |
| 1788006995 | 25.56° C | 45% | 1017.3 hPa | - | - | - | - |
| 1788003395 | 25.56° C | 48% | 1017.6 hPa | - | - | - | - |
| 1787999795 | 23.89° C | 53% | 1018 hPa | - | - | - | - |
| 1787996194 | 22.78° C | 58% | 1018.6 hPa | - | - | - | - |
| 1787992594 | 20.56° C | 72% | 1018.7 hPa | - | - | - | - |
| 1787988994 | 19.44° C | 80% | 1018.8 hPa | - | - | - | - |
| 1787985394 | 18.33° C | 82% | 1018.8 hPa | - | - | - | - |
| 1787981794 | 18.33° C | 87% | 1018.7 hPa | - | - | - | - |
| 1787978194 | 17.78° C | 90% | 1018.6 hPa | - | - | - | - |
* Rain since midnight (hover to see other rain measurements)
** Current wind speed in m/s (hover to see current wind gust speed)